Weather History for Shelton, WA

Change the Weather History Date:

Friday, February 28, 2014

  Actual Average Record
Temperature  
Mean Temperature 48 °F -  
Max Temperature 60 °F 52 °F 69 °F (1968)
Min Temperature 35 °F 35 °F 19 °F (1960)
Degree Days  
Heating Degree Days 18    
Moisture  
Dew Point 37 °F    
Average Humidity 82    
Maximum Humidity 100    
Minimum Humidity 44    
Precipitation  
Precipitation 0.00 in - - ()
Sea Level Pressure  
Sea Level Pressure 29.61 in    
Wind  
Wind Speed 4 mph (NNE)    
Max Wind Speed 14 mph    
Max Gust Speed 21 mph    
Visibility 7 miles    
Events Fog    
Averages and records for this station are not official NWS values.
T = Trace of Precipitation, MM = Missing Value Source: NWS Daily Summary

Daily Weather History Graph

Daily Weather History Graph

Search for Another Location

Airport:

Trip Planner

Search our weather history database for the weather conditions in past years. The results will help you decide how hot, cold, wet, or windy it might be!

Date:

Astronomy

Feb. 28, 2014 Rise Set
Actual Time 6:54 AM PST 5:56 PM PST
Civil Twilight 6:23 AM PST 6:27 PM PST
Nautical Twilight 5:48 AM PST 7:02 PM PST
Astronomical Twilight 5:12 AM PST 7:38 PM PST
Moon 6:13 AM PST (2/28) 5:41 PM PST (2/28)
Length of Visible Light 12h 03m
Length of Day
11h 02m
Waning Crescent, 0% of the Moon is Illuminated
Feb 28
Waning Crescent
Mar 1
New
Mar 8
First Quarter
Mar 16
Full
Mar 23
Last Quarter

Hourly Weather History & Observations

Time (PST) Temp. Windchill Dew Point Humidity Pressure Visibility Wind Dir Wind Speed Gust Speed Precip Events Conditions
12:53 AM 42.1 °F 40.2 °F 39.9 °F 92% 29.72 in 10.0 mi North 3.5 mph - N/A   Overcast
1:53 AM 42.1 °F 40.2 °F 39.9 °F 92% 29.73 in 10.0 mi NW 3.5 mph - N/A   Overcast
2:53 AM 42.1 °F 37.1 °F 39.0 °F 89% 29.69 in 10.0 mi North 8.1 mph - N/A   Overcast
3:53 AM 39.9 °F 36.7 °F 39.0 °F 97% 29.68 in 10.0 mi North 4.6 mph - N/A   Partly Cloudy
4:16 AM 39.0 °F - 37.0 °F 93% 29.67 in 1.5 mi Calm Calm - N/A   Partly Cloudy
4:25 AM 37.9 °F - 36.0 °F 93% 29.67 in 0.8 mi Calm Calm - N/A   Mostly Cloudy
4:34 AM 37.9 °F 34.4 °F 36.0 °F 93% 29.66 in 1.5 mi North 4.6 mph - N/A   Scattered Clouds
4:41 AM 37.9 °F 35.5 °F 36.0 °F 93% 29.66 in 4.0 mi North 3.5 mph - N/A   Scattered Clouds
4:49 AM 37.4 °F - 37.4 °F 100% 29.66 in 1.2 mi Calm Calm - N/A   Partly Cloudy
4:51 AM 35.6 °F - 35.6 °F 100% 29.66 in 0.8 mi Calm Calm - N/A   Partly Cloudy
4:53 AM 35.1 °F - 35.1 °F 100% 29.68 in 0.5 mi Calm Calm - N/A Fog Fog
5:07 AM 35.1 °F - 34.0 °F 96% 29.66 in 0.5 mi Calm Calm - N/A Fog Fog
5:24 AM 35.1 °F - 34.0 °F 96% 29.65 in 1.8 mi Calm Calm - N/A   Overcast
5:31 AM 36.0 °F - 35.1 °F 97% 29.65 in 2.5 mi Calm Calm - N/A   Overcast
5:38 AM 36.0 °F - 35.1 °F 97% 29.65 in 7.0 mi Calm Calm - N/A   Overcast
5:45 AM 37.0 °F - 36.0 °F 96% 29.64 in 9.0 mi Calm Calm - N/A   Overcast
5:53 AM 37.0 °F - 36.0 °F 96% 29.65 in 9.0 mi Calm Calm - N/A   Overcast
6:38 AM 41.0 °F 37.1 °F 39.0 °F 93% 29.63 in 6.0 mi North 5.8 mph - N/A   Overcast
6:53 AM 41.0 °F 37.1 °F 39.9 °F 96% 29.64 in 2.5 mi North 5.8 mph - N/A   Overcast
7:12 AM 41.0 °F 37.1 °F 39.9 °F 96% 29.62 in 4.0 mi North 5.8 mph - N/A   Overcast
7:30 AM 41.0 °F 39.0 °F 39.9 °F 96% 29.62 in 7.0 mi Variable 3.5 mph - N/A   Scattered Clouds
7:53 AM 42.1 °F 38.4 °F 39.9 °F 92% 29.63 in 10.0 mi NNE 5.8 mph - N/A   Clear
8:51 AM 44.6 °F 43.1 °F 41.0 °F 87% 29.62 in 10.0 mi Variable 3.5 mph - N/A   Partly Cloudy
8:53 AM 46.0 °F 43.9 °F 41.0 °F 83% 29.63 in 10.0 mi Variable 4.6 mph - N/A   Partly Cloudy
9:53 AM 48.9 °F - 41.0 °F 74% 29.61 in 10.0 mi NE 3.5 mph - N/A   Clear
10:53 AM 54.0 °F - 41.0 °F 62% 29.60 in 10.0 mi North 8.1 mph - N/A   Clear
11:53 AM 55.0 °F - 39.9 °F 57% 29.58 in 10.0 mi NE 8.1 mph - N/A   Clear
12:53 PM 57.9 °F - 39.0 °F 49% 29.55 in 10.0 mi NE 10.4 mph - N/A   Clear
1:53 PM 60.1 °F - 39.0 °F 46% 29.51 in 10.0 mi NNE 12.7 mph 20.7 mph N/A   Clear
2:53 PM 59.0 °F - 37.9 °F 46% 29.50 in 10.0 mi North 13.8 mph 20.7 mph N/A   Clear
3:53 PM 57.9 °F - 36.0 °F 44% 29.49 in 10.0 mi NNE 12.7 mph 20.7 mph N/A   Clear
4:53 PM 55.0 °F - 36.0 °F 49% 29.48 in 10.0 mi NE 10.4 mph 18.4 mph N/A   Clear
5:53 PM 52.0 °F - 35.1 °F 53% 29.48 in 10.0 mi NE 4.6 mph - N/A   Clear
6:53 PM 48.0 °F - 34.0 °F 58% 29.49 in 10.0 mi Calm Calm - N/A   Clear
7:53 PM 39.9 °F - 32.0 °F 73% 29.49 in 10.0 mi Calm Calm - N/A   Clear
8:53 PM 39.9 °F - 34.0 °F 79% 29.50 in 10.0 mi Calm Calm - N/A   Clear
9:53 PM 37.0 °F 33.3 °F 32.0 °F 82% 29.51 in 10.0 mi North 4.6 mph - N/A   Clear
10:53 PM 35.1 °F - 30.9 °F 85% 29.52 in 10.0 mi Calm Calm - N/A   Clear
11:53 PM 35.1 °F - 32.0 °F 89% 29.53 in 10.0 mi Calm Calm - N/A   Overcast